Retour au catalogue

FLOCK 4BE 11

ActifScienceSSO
NORAD 60501·PAYLOAD·🇺🇸 United States

Lancé Aug 16, 2024 depuis Vandenberg Space Force Base

Loading…

Prochains Passages (prochaines 24 heures)

TLE

FraisSource: CelesTrak SupGP

Époque: Sep 14, 2026, 16:45 UTC

1 60501C 24149BB  26257.69798611  .00046211  00000+0  93972-3 0  2574
2 60501  97.3656 343.0726 0002387 310.7487 270.7405 15.46287003    17

Suivez FLOCK 4BE 11 en temps réel avec AllMySat

Download on the App Store